Home > Weather > Hückelhoven > Past weeks

Flag for Germany Past Weather in Hückelhoven, North Rhine-Westphalia, Germany — Yesterday and Last 2 Weeks

Now
64 °F

Passing clouds.


Feels Like: 64 °F
Forecast: 58 / 73 °F
Wind: 2 mph from West

Location: Geilenkirchen Airport

Current Time: Jul 26, 2016 at 2:43:40 AM

Latest Report: Jul 26, 2016 at 1:50 AM


Visibility: N/A

Pressure: 30.15 "Hg

Humidity: 83%

Dew Point: 59 °F

Location of HückelhovenLocation

Past Weather in Hückelhoven — Graph

°F

Hückelhoven Temperature Yesterday

Maximum temperature yesterday: 77 °F (at 1:50 PM)
Minimum temperature yesterday: 64 °F (at 2:50 AM)
Average temperature yesterday: 71 °F

High & Low Weather Summary for the Past Weeks

 TemperatureHumidityPressure
High95 °F (Jul 20, 1:50 PM)100% (Jul 18, 5:50 AM)30.33 "Hg (Jul 18, 5:50 AM)
Low50 °F (Jul 14, 3:50 AM)28% (Jul 20, 2:50 PM)29.80 "Hg (Jul 11, 4:50 AM)
Average69 °F70%30.04 "Hg
* Reported Jul 11 12:50 AM — Jul 26 12:50 AM, Hückelhoven, Weather by CustomWeather, © 2016

Note: Actual official high and low records may vary slightly from our data, if they occured in-between our weather recording intervals... More about our weather records

Advertising

Hückelhoven Weather History for the Previous 24 Hours

Scroll right to see more
 ConditionsComfort  
Time TempWeatherWind HumidityBarometerVisibility
12:50 AM
Tue, Jul 26
63 °FPassing clouds.2 mph94%30.15 "HgN/A
11:50 PM
Mon, Jul 25
66 °FClear.5 mph94%30.12 "Hg10 mi
10:50 PM68 °FPassing clouds.7 mph88%30.12 "HgN/A
9:50 PM73 °FScattered showers. Scattered clouds.3 mph69%30.12 "HgN/A
8:50 PM73 °FScattered clouds.3 mph74%30.09 "HgN/A
7:50 PM75 °FPartly sunny.7 mph65%30.09 "HgN/A
6:50 PM77 °FBroken clouds.14 mph65%30.09 "HgN/A
5:50 PM75 °FBroken clouds.10 mph65%30.09 "HgN/A
4:50 PM77 °FBroken clouds.15 mph61%30.09 "HgN/A
3:50 PM77 °FScattered clouds.14 mph65%30.09 "HgN/A
2:50 PM75 °FBroken clouds.10 mph69%30.09 "HgN/A
1:50 PM77 °FBroken clouds.13 mph61%30.09 "HgN/A
12:50 PM75 °FPartly sunny.10 mph65%30.09 "HgN/A
11:50 AM73 °FPartly sunny.9 mph69%30.12 "HgN/A
10:50 AM72 °FSunny.9 mph69%30.12 "Hg10 mi
9:50 AM70 °FPartly sunny.7 mph73%30.12 "HgN/A
8:50 AM68 °FPartly sunny.8 mph78%30.12 "HgN/A
7:50 AM66 °FPartly sunny.5 mph78%30.12 "HgN/A
6:50 AM64 °FPassing clouds.5 mph83%30.09 "HgN/A
5:50 AM64 °FPassing clouds.5 mph83%30.09 "HgN/A
4:50 AM64 °FClear.3 mph83%30.09 "Hg10 mi
3:50 AM66 °FPassing clouds.3 mph83%30.09 "HgN/A
2:50 AM64 °FPassing clouds.5 mph88%30.09 "HgN/A
Weather by CustomWeather, © 2016

See weather overviewHow to use our weather pages